Regional Weather Roundup
Issued by NWS

Home | Current Version | Previous Version | Text Only | Print | Product List | Glossary Off
Versions: 1 2 3 4 5 6 7 8 9 10 11 12 13 14 15 16 17 18 19 20 21 22 23 24 25 26 27 28 29 30 31 32 33 34 35 36 37 38 39 40 41 42 43 44 45 46 47 48 49 50

000
ASUS45 KBOU 052207
RWRCO

WEATHER ROUNDUP FOR COLORADO
NATIONAL WEATHER SERVICE DENVER/BOULDER CO
400 PM MDT TUE MAY 05 2015

NOTE: "FAIR" INDICATES FEW OR NO CLOUDS BELOW 12000 FEET WITH NO
SIGNIFICANT WEATHER AND/OR OBSTRUCTIONS TO VISIBILITY.

COZ001>005-013-030-031-052300-
...NORTHWEST COLORADO...

CITY           SKY/WX    TMP DP  RH WIND       PRES   REMARKS
CRAIG            N/A     68  39  34 MISG      29.75F
HAYDEN         NOT AVBL
MEEKER         LGT RAIN  53  47  79 W9        29.82S
MOUNT WERNER   NOT AVBL
STEAMBOAT SPGS CLOUDY    64  37  36 W10       29.75F
WALDEN         CLOUDY    59  32  36 CALM      29.82F
$$

COZ006>008-011-052300-
...WEST CENTRAL VALLEYS...

CITY           SKY/WX    TMP DP  RH WIND       PRES   REMARKS
GRAND JUNCTION LGT RAIN  58  50  75 N16       29.78F
MONTROSE       CLOUDY    54  46  74 SE8       29.85F
EAGLE          PTSUNNY   64  37  36 SW13      29.77F
RIFLE          CLOUDY    64  43  46 W18       29.76F
DELTA          CLOUDY    60  48  64 SW6       29.82S
NUCLA          CLOUDY    54  45  71 CALM      29.88F
$$

COZ017>023-064>068-052300-
...SOUTHWEST COLORADO...

CITY           SKY/WX    TMP DP  RH WIND       PRES   REMARKS
DURANGO        CLOUDY    51  45  79 SW14      29.90F
CORTEZ         CLOUDY    54  46  74 CALM      29.88F
PAGOSA SPRINGS LGT RAIN  44  43  97 NE3       29.94F
TELLURIDE      RAIN      39  38  95 CALM      29.99S
WOLF CREEK PAS NOT AVBL
$$

COZ009-010-012-014-032>034-037-058>063-052300-
...CENTRAL COLORADO...

CITY           SKY/WX    TMP DP  RH WIND       PRES   REMARKS
ASPEN          CLOUDY    55  40  56 N12       29.82F
BUENA VISTA    NOT AVBL
COPPER MTN     CLOUDY    41  34  75 NE9       30.04F
BERTHOUD PASS  SNOW      30  21  69 E14G22    30.08F VSB<1/4 WCI  20
COTTONWOOD PAS LGT RAIN  41  37  87 CALM      29.97F
GUNNISON       CLOUDY    48  39  71 NE3       29.91F
KREMMLING      RAIN      50  39  66 S9        29.85R
LEADVILLE      LGT RAIN  40  40 100 S13       29.93F FOG
MONARCH PASS   SNOW      32  32 100 SW8       30.13F VSB<1/4 WCI  25
SALIDA         CLOUDY    47  44  91 CALM      29.98F
SUNLIGHT       CLOUDY    39  37  93 N6        30.02F
WILKERSON PASS SNOW      34  32  93 NE7       30.03F VSB 1/4 WCI  28
$$

COZ069>075-052300-
...SAN LUIS VALLEY/SANGRE DE CRISTO MOUNTAINS...

CITY           SKY/WX    TMP DP  RH WIND       PRES   REMARKS
ALAMOSA        CLOUDY    50  39  66 NW10      29.87F
LA VETA PASS   CLOUDY    34  34 100 MISG      29.95F VSB 1/4
SAGUACHE       RAIN      45  41  87 SE3       29.91F
$$

COZ035-036-038>040-052300-
...NORTHERN COLORADO FRONT RANGE...

CITY           SKY/WX    TMP DP  RH WIND       PRES   REMARKS
DENVER INTL AP LGT RAIN  53  50  89 E13       29.86F
DMNS CITY PARK   N/A     52  51  96 E6        29.85F
AURORA         LGT RAIN  50  50 100 E7        29.87F FOG
FRONT RANGE AP LGT RAIN  54  52  94 E13       29.87F
ERIE MUNI ARPT RAIN      53  51  94 E7        29.86F
BOULDER MUN AP LGT RAIN  52  52 100 NE9       29.86F
CENTENNIAL     LGT RAIN  50  48  93 S9        29.86F FOG
BROOMFIELD     RAIN      52  52 100 N8        29.88F
FORT COLLINS   CLOUDY    52  50  93 E8        29.89F
LONGMONT       DRIZZLE   55  53  91 E9        29.89F
$$

COZ041-046-047-076>085-087-088-052300-
...PIKES PEAK/PALMER DIVIDE AND SOUTHERN FOOTHILLS...

CITY           SKY/WX    TMP DP  RH WIND       PRES   REMARKS
COLO. SPRINGS  LGT RAIN  50  46  86 N6        29.87F FOG
A. F. ACADEMY  NOT AVBL
ELLICOTT       LGT RAIN N/A N/A N/A N9        29.83F
FALCON         LGT RAIN  47  44  91 N5        29.88F
FORT CARSON    LGT RAIN  50  48  93 NW9       29.84F
LIMON          LGT RAIN  52  49  89 N7        29.81F FOG
MONUMENT HILL  LGT RAIN  45  41  87 CALM      29.88F
TRINIDAD       LGT RAIN  55  48  77 N8        29.80F
$$

COZ042>045-048>051-090-091-052300-
...NORTHEAST COLORADO...

CITY           SKY/WX    TMP DP  RH WIND       PRES   REMARKS
GREELEY ARPT   CLOUDY    54  48  82 E12       29.88F
AKRON          RAIN      53  52  96 NE13      29.85F FOG
BURLINGTON     LGT RAIN  56  54  93 SE26G36   29.78F FOG
WRAY           LGT RAIN N/A N/A N/A E15G24    29.85F
STERLING       LGT RAIN  54  54 100 E9        29.86F
HOLYOKE        NOT AVBL
FORT MORGAN    DRIZZLE   54  51  92 NE10      29.87F
$$

COZ086-089-092>099-052300-
...SOUTHEAST COLORADO...

CITY           SKY/WX    TMP DP  RH WIND       PRES   REMARKS
PUEBLO         LGT RAIN  53  51  93 E5        29.80F FOG
LA JUNTA       CLOUDY    61  54  77 S8        29.75F
LAMAR          LGT RAIN  60  57  89 SW8       29.74F FOG
SPRINGFIELD      N/A     61  53  75 S14G23    29.78F
$$



USA.gov is the U.S. government's official web portal to all federal, state and local government web resources and services.